Find Starlink 30229

NORAD ID: 57461 Int'l Des: 2023-107 Owner: SPXS Country: US Constellation: starlink operational
LEOCIRCULAR

リアルタイム位置

3D地球を読み込み中...

Starlink 30229について

説明を読み込み中...

次回通過

Passes for default location (London). Set your location on the main map for personalized predictions.

高度履歴

Loading altitude history...

軌道要素

1 57461U 23107E 26129.65184472 .00003159 00000-0 12425-3 0 9998
2 57461 42.9994 359.2305 0001592 154.4173 205.6757 15.27588449154387
Epoch: May 9, 2026 • Age: 24 hours

現在のステータス

高度 485.5 km
速度 7.63 km/s
衛星直下点 40.25°N, 42.67°W
打ち上げ日 Jul 28, 2023
運用期間 2.7 years
タイプ internet

技術仕様

分類 Payload
質量 730.00 kg
乾燥質量 700.00 kg
総質量 730.00 kg
長さ 0.30 m
直径 4.10 m
スパン 29.00 m
形状 Box + pan
製造者 SPXS
バスタイプ Starlink V2M
フェーズステータス In Orbit
所有者/国 SPXS/US

Most Searched